Погода в Питерборо

Канада     44°18′53″N   78°19′37″W
темп.,
°C
ветер,
м/с
пор.,
м/с
влажн.,
%
обл.,
%
осадки,
мм/ч
давл.,
гПа
погр.,
м
26 октября, вт
вт2623:00+4ссв61293100 5.3 1011676
02:00+3ссв71292100 5.3 1010516
05:00+4ссв61194100 0.0 1008514
08:00+4с61295100 0.4 1008512
11:00+5с61195100 3.9 1008551
14:00+6с61393100 4.1 1008603
17:00+6ссв61293100 1.1 1009499
20:00+7ссв61493100 1.4 1011526
27 октября, ср
ср2723:00+7ссв51294100 0.1 1012551
02:00+7ссв51193100 0.1 1013510
05:00+7ссв41191100 0.0 1014422
08:00+6с3894100 0.0 1016271
11:00+9ссв477660 0.0 1016485
14:00+13ссв455929 0.0 1014776
17:00+13св36645 0.0 1014364
20:00+7св38815 0.0 1016156
28 октября, чт
чт2823:00+5св38851 0.0 1015157
02:00+4св39813 0.0 1015183
05:00+3св312864 0.0 1015279
08:00+2всв4139315 0.0 1015332
11:00+8в6106794 0.0 1014540
14:00+12в695512 0.0 1012691
17:00+11в6116288 0.0 1011652
20:00+7всв6137447 0.0 1012395
29 октября, пт
пт2923:00+6всв5138197 0.0 1011299
02:00+5в513895 0.0 1011299
05:00+5в5139738 0.0 1010313
08:00+6в5129797 0.0 1010356
11:00+8в71377100 0.0 1009692
14:00+10в7126988 0.0 10071024
17:00+10вюв51074100 0.4 1007834
20:00+8всв61396100 8.3 1007747
30 октября, сб
сб3023:00+8всв71495100 2.4 1006685
02:00+8в71393100 2.4 1005650
05:00+8всв51295100 0.0 1004610
08:00+8всв51196100 0.4 1004619
11:00+8всв4997100 1.8 1005518
14:00+8всв4797100 2.6 1005360
17:00+10всв3588100 0.1 1005486
20:00+9ссв379341 0.1 1006221